Regional Weather Roundup
Issued by NWS Charleston, SC

Current Version | Previous Version | Text Only | Print | Product List | Glossary Off
Versions: 1 2 3 4 5 6 7 8 9 10 11 12 13 14 15 16 17 18 19 20 21 22 23 24 25 26 27 28 29 30 31 32 33 34 35 36 37 38 39 40 41 42 43 44 45 46 47 48 49 50
000 ASUS42 KCHS 260910 RWRCHS REGIONAL WEATHER ROUNDUP NATIONAL WEATHER SERVICE CHARLESTON SC 500 AM EDT SAT JUL 26 2014 NOTE: "FAIR" INDICATES FEW OR NO CLOUDS BELOW 12,000 FEET WITH NO SIGNIFICANT WEATHER AND/OR OBSTRUCTIONS TO VISIBILITY. NOT ALL STATIONS ARE QUALITY CONTROLLED BY THE NATIONAL WEATHER SERVICE. USE DATA WITH CAUTION...ESPECIALLY DEWPOINT OBSERVATIONS. SCZ027-030-031-034>040-042>050-261000- ...SOUTH CAROLINA... CITY SKY/WX TMP DP RH WIND PRES REMARKS N CHARLESTON MOCLDY 76 72 87 CALM 30.00R WATERFRONT PRK N/A 77 N/A N/A CALM N/A FORT JOHNSON NOT AVBL MOUNT PLEASANT PTSUNNY 73 73 100 CALM 30.00S FOG JOHNS ISLAND PTSUNNY 75 68 78 CALM 30.00S PINOPOLIS N/A 75 72 88 CALM 29.93R MONCKS CORNER N/A 72 72 100 CALM 30.00R SUMMERVILLE CLOUDY 72 72 100 CALM 30.01R BEAUFORT MCAS CLOUDY 76 74 93 W5 30.00R BEAUFORT ARPT NOT AVBL HILTON HEAD IS PTCLDY 75 75 100 S5 30.02R GEORGETOWN NOT AVBL WALTERBORO MOSUNNY 72 N/A N/A CALM 30.01R ORANGEBURG CLOUDY 72 70 93 S5 30.00R FOG BARNWELL FAIR 73 72 94 CALM 30.00R AIKEN FAIR 72 72 100 CALM 30.03R MANNING FAIR 72 N/A N/A CALM 30.00R KINGSTREE NOT AVBL COLUMBIA CLEAR 75 70 84 N3 29.98R SUMTER CLOUDY 72 72 100 SE3 29.99R FLORENCE FOG 71 70 96 CALM 29.99S VSB 1/4 MYRTLE BEACH MOCLDY 73 70 88 SW3 30.00R N MYRTLE BEACH MOCLDY 75 70 84 W3 29.99R $$ GAZ063-065-086>088-099>101-113>116-118-119-134-136>141-150-261000- ...GEORGIA... CITY SKY/WX TMP DP RH WIND PRES REMARKS SAVANNAH ARPT PTCLDY 77 72 84 S3 30.02R HUNTER AAF PTCLDY 76 74 93 S2 30.00R FORT STEWART PTCLDY 77 73 88 SW5 30.00R STATESBORO NOT AVBL SYLVANIA MOSUNNY 74 74 100 CALM 30.01R CLAXTON FAIR 77 77 100 CALM 30.01R THOMSON CLEAR 73 73 100 CALM 30.04R AUGUSTA-BUSH FOG 71 70 96 CALM 29.98S VSB 1/2 AUGUSTA-DANIEL CLEAR 74 72 93 CALM 30.00R SWAINSBORO CLOUDY 77 77 100 CALM 30.02R VIDALIA N/A 77 73 88 CALM 30.01R ALMA CLEAR 75 73 93 CALM 30.02R WAYCROSS CLEAR 78 77 96 SW3 30.02R JESUP NOT AVBL BRUNSWICK MOCLDY 77 72 83 SW3 30.03R SAINT SIMONS MOCLDY 77 73 87 W7 30.02R $$ SCZ027-028-034-036>038-045-046-048>050-GAZ119-141-261000- ...LAKE AND SUPPLEMENTAL COASTAL OBSERVATIONS... STATION/POSITION TIME TEMP WIND PRES WAVE SWELL AIR SEA DIR/SP/G HT/PER HT/PER/DIR (UTC) (F) (DEG/KT/KT) (MB) (FT/S) (FT/S/D) UPR LAKE MARION NOT AVBL WINYAH BAY 0800 74 300/ 1 1015.0S LAKE MURRAY 0800 74 290/ 3/ 6 1014.9R ACE BASIN NERRS 0800 73 CALM 1015.0S FORT PULASKI 0900 78 220/ 3/ 5 1016.5S SAPELO ISLAND 0800 79 240/ 10 1016.0S $$ ANZ835-935-AMZ111-154-330-350-352-354-374-450-454-472-261000- ...C-MAN AND BUOY OBSERVATIONS... STATION/POSITION TIME TEMP WIND PRES WAVE SWELL AIR SEA DIR/SP/G HT/PER HT/PER/DIR (UTC) (F) (DEG/KT/KT) (MB) (FT/S) (FT/S/D) FOLLY BEACH CMAN 0800 78 180/ 7/ 8 1016.1R BUOY 41004 0900 81 83 250/ 10/ 12 1015.0R 3/ 5 3/ 5 BUOY 41008 0900 82 84 260/ 17/ 19 1016.1R 3/ 5 5E ST. MARYS GA 0900 84 N/A 2/ 4 FRYING PAN BUOY NOT AVBL BUOY 41025 0900 VRB 2/ 4 1015.5R 2/ 6 2/170/ 6 CAPE LOOKOUT NC 0800 79 50/ 2/ 2 1015.4F BUOY 41002 0757 81 82 230/ 14/ 16 1017.9 4/ 6 2/210/ 7 BUOY 41010 0900 83 84 210/ 12/ 14 1017.7R 2/ 8 2/140/ 8 BUOY 41012 NOT AVBL ST AUGUSTINE FL 0900 75 240/ 5/ 6 1017.8R CAPERS NEARSHORE 0800 79 230/ 4/ 6 N/A FRIPP NEARSHORE NOT AVBL $$

USA.gov is the U.S. government's official web portal to all federal, state and local government web resources and services.